Location: Bosmont
(49.7318°N, 3.8587°E)
Time: 15:52:57
(UTC+00:00)

SJ-6B - Pass Details

Date: 08 February 2023
Orbit: 501 x 570 km, 97.5° (Epoch: 25 March)

Event Time Altitude Azimuth Distance (km) Brightness Sun altitude
Exits shadow 18:44:08 43° 68° (ENE) 790 3.1 -18.6°
Drops below altitude 10° 18:47:56 10° 359° (N) 1,873 5.5 -19.2°
Sets 18:50:10 0° 353° (N) 2,783 6.5 -19.6°
